www.pogodaiklimat.ru
ПОГОДА в Ханфорде
Время
и дата
01:15 30.01
01:23 30.01
01:53 30.01
02:24 30.01
02:35 30.01
02:53 30.01
03:36 30.01
03:53 30.01
04:53 30.01
05:53 30.01
06:17 30.01
06:30 30.01
06:44 30.01
06:53 30.01
07:15 30.01
07:27 30.01
07:42 30.01
07:53 30.01
08:53 30.01
09:35 30.01
09:53 30.01
10:53 30.01
11:53 30.01
12:53 30.01
13:53 30.01
14:53 30.01
15:53 30.01
16:53 30.01
17:53 30.01
18:53 30.01
19:53 30.01
20:53 30.01
21:45 30.01
21:53 30.01
22:08 30.01
22:29 30.01
22:53 30.01
23:02 30.01
23:53 30.01
00:16 31.01
00:23 31.01
00:53 31.01
01:53 31.01
02:53 31.01
03:03 31.01
03:17 31.01
03:53 31.01
04:02 31.01
Ветер
(напр.,м/с)
Видим. Явления Облачность Т
(С)
Тd
(С)
f
(%)
Тe
(С)
Тes
(С)
Комфортность P
(гПа)
Po
(гПа)
Тmin
(С)
Tmax
(С)
R
(мм)
R24
(мм)
S
(см)
СЗ 3 16 км 10/10 300 м +7.2 +5.6 90 +4 +4 1004.6
СЗ 2 16 км 10/10 300 м +7.2 +5.6 90 +5 +5 1004.6
З 4 16 км 10/10 1320 м +7.8 +6.1 89 +4 +4 1013.9 1004.9
С 3 16 км 10/5 150 m
[Ac]
+7.2 +6.1 93 +4 +4 1004.9
С 3 16 км 10/8 150 m
[Ac]
+7.2 +6.1 93 +4 +4 1005.2
СЗ 3 14 км 10/10 150 м +7.2 +5.6 90 +4 +4 1014.3 1005.2
СЗ 5 11 км 10/10 120 м +6.7 +5.6 93 +2 +2 1005.6
СЗ 5 10 км дымка 10/10 120 м +6.7 +5.6 93 +2 +2 1014.7 1005.6 +5.6 +7.8 0.3
СЗ 5 11 км 10/10 120 м +6.7 +5.6 93 +2 +2 1014.7 1005.6
СЗ 5 10 км дымка 10/10 90 м +6.7 +5.0 89 +2 +2 1015.5 1006.2
СЗ 6 16 км 10/10 180 м +5.6 +3.3 85 +1 +1 1006.6
СЗ 5 16 км 10/10 210 м +5.6 +2.8 82 +1 +1 1006.9
З 5 16 км 10/10 240 м +5.0 +2.8 86 0 0 1006.9
З 4 16 км 10/10 240 м +5.0 +2.8 86 +1 +1 1016.4 1007.3
СЗ 6 16 км 10/10 210 м +4.4 +2.8 89 -1 -1 1007.3
СЗ 6 16 км 10/10 180 м +4.4 +2.2 86 -1 -1 1007.6
СЗ 6 16 км 10/10 240 м +3.9 +0.6 79 -2 -2 1007.6
СЗ 6 16 км 5/5 240 м +3.9 -1.1 70 -1 -1 1017.0 1007.9
СЗ 6 16 км 8/8 840 м +4.4 -1.1 67 -1 -1 1018.5 1009.3
СЗ 6 16 км 10/10 930 м +5.0 -0.6 67 0 0 1009.6
СЗ 5 16 км 5/5 900 м +5.6 -1.1 62 +2 +2 1019.3 1009.9 +3.9 +6.7
СЗ 4 16 км ясно +8.3 0.0 56 +6 +9 1019.4 1010.3
нст 2 16 км ясно +8.9 +0.6 56 +8 +15 1019.1 1009.9
СЗ 4 16 км ясно +10.6 +1.7 54 +8 +14 1018.8 1009.6
нст 3 16 км ясно +11.7 +2.2 52 +10 +16 1018.3 1009.3
нст 2 16 км ясно +12.2 +2.8 53 +12 +17 1018.3 1009.3
СЗ 3 16 км ясно +11.7 +2.2 52 +10 +13 1018.2 1008.9 +5.6 +12.8
СЗ 3 16 км ясно +10.6 +1.7 54 +9 +10 1018.6 1009.3
СЗ 2 16 км ясно +8.9 +1.1 58 +8 +8 1019.2 1009.9
штиль 0 16 км ясно +6.1 +1.1 70 +5 +5 1019.7 1010.3
штиль 0 11 км ясно +6.1 +4.4 89 +5 +5 1020.3 1010.9
Ю 2 8 км дымка ясно +4.4 +2.8 89 +2 +2 1021.3 1011.9
Ю 2 3 км дымка ясно +3.3 +2.2 92 0 0 1012.3
Ю 2 1 км дымка ясно +3.3 +2.2 92 0 0 1021.8 1012.3 +3.3 +11.7
штиль 0 3 км дымка ясно +3.3 +2.2 92 +2 +2 1012.3
штиль 0 400 м туман ?/? +2.8 +1.1 89 +2 +2 1012.6
В 2 400 м туман ?/? +2.2 +1.1 92 -1 -1 1022.1 1013.0
В 2 400 м туман ?/? +2.2 +1.7 96 -1 -1 1013.0
штиль 0 400 м туман ?/? +1.7 +1.1 96 0 0 1022.1 1012.6
В 2 800 м туман ?/? +1.7 +0.6 92 -2 -2 1012.6
В 2 400 м туман ?/? +1.7 +1.1 96 -2 -2 1012.6
штиль 0 400 м туман ?/? +1.7 +1.1 96 0 0 1022.1 1012.6
штиль 0 400 м туман ?/? +1.7 +0.6 92 +1 +1 1022.3 1013.0
штиль 0 400 м туман ?/? +1.1 +0.6 96 0 0 1022.5 1013.3
штиль 0 400 м туман ?/? +1.1 +0.6 96 0 0 1013.3
штиль 0 400 м туман ?/? +1.1 +0.6 96 0 0 1013.3
штиль 0 400 м туман ?/? +1.1 0.0 92 0 0 1022.6 1013.3 +0.6 +3.9
штиль 0 400 м туман ?/? +1.1 0.0 92 0 0 1013.3
Местоположение метеостанции Hanford Municipal Airport: широта 36.3186 долгота -119.6289 высота над уровнем моря 74 м.
В архиве по умолчанию представлена погода в Ханфорде за последние 1-2 суток. Обновление информации о фактической погоде в базе происходит ежечасно! Архивные данные за месяц целиком и за предыдущие месяцы Вы можете получить, выбрав интересующий диапазон дат из раскрывающегося списка и нажав кнопку "Ввод!".
Внимание! Архив погоды МЕТАР в базе сайта по станциям, не включенным в климатический монитор, хранится не более 60 дней. Нет смысла пытаться выбрать более раннюю дату.
*Определитесь, кто Вы:
Внимание! Время в таблицах - местное (без учета летнего времени). Для получения всемирного времени необходимо вычесть поправку, которая равна -8 ч.
Смотрите также архив погоды в соседних городах и на ближайших метеорологических станциях:
Партнеры нашего сайта:      
Пояснения к столбцам:
  • Ветер - указаны скорость ветра в м/с - средняя за 10 мин, порывы в срок и между сроками (в фигурных скобках) и направление, откуда дует ветер: С - северный,
  • СВ - северо-восточный, В - восточный, ЮВ - юго-восточный, Ю - южный, ЮЗ - юго-западный, З - западный, СЗ - северо-западный.
  • Видимость - горизонтальная дальность видимости в метрах или километрах. При видимости от 1 до 10 км при отсутствии осадков обычно наблюдается дымка, при ухудшении видимости до 1 км и менее - туман. В сухую погоду видимость может ухудшаться дымом, пылью или мглою.
  • Явления - указаны атмосферные явления, наблюдавшиеся в срок или в последний час перед сроком; фигурными скобками обозначены явления, наблюдавшиеся между сроками (за 1-3 часа до срока); квадратными скобками обозначены град или гололедные отложения с указанием их диаметра в мм.
  • Облачность - указаны через наклонную черту общая и нижняя облачность в баллах и высота нижней границы облаков в метрах; квадратными скобками обозначены формы облаков: Ci - перистые, Cs - перисто-слоистые, Cc - перисто-кучевые, Ac - высококучевые, As - высокослоистые, Sc - слоисто-кучевые, Ns - слоисто-дождевые, Cu - кучевые, Cb - кучево-дождевые. Подробнее классификацию облаков см. в Атласе облаков (PDF).
  • T - Температура воздуха - температура, измеренная на высоте 2 м над землей.
  • Td - Температура точки росы - температура, при понижении до которой содержащийся в воздухе водяной пар достигнет насыщения.
  • f - Относительная влажность воздуха - влажноcть воздуха, измеренная на высоте 2 м над землей.
  • Te - Эффективная температура - температура, которую ощущает одетый по сезону человек в тени. Характеристика душности погоды. При расчете учитывается влияние влажности воздуха и скорости ветра на теплоощущения человека.
  • Tes - Эффективная температура на солнце - температура, которую ощущает человек, с поправкой на солнечный нагрев. Характеристика знойности погоды. Зависит от высоты солнца над горизонтом, облачности и скорости ветра. Ночью, в пасмурную погоду, а также при ветре 12 м/с и более поправка равна нулю.
  • P - Атмосферное давление - приведенное к уровню моря атмосферное давление.
  • Po - Атмосферное давление - измеренное на уровне метеостанции атмосферное давление.
  • Tmin - Минимальная температура - минимум температуры воздуха на высоте 2 м над землей.
  • Tmax - Максимальная температура - максимум температуры воздуха на высоте 2 м над землей.
  • R - Количество осадков - Количество выпавших осадков за период времени, мм. При наведении курсора мыши на число - период времени, за который выпало указанное количество осадков.
  • R24 - Количество осадков - Количество выпавших осадков за 24 часа, мм.
  • S - Снежный покров - Высота снежного покрова, см. При наведении курсора мыши на число - состояние снежного покрова и степень покрытия местности в баллах.